Location: Kyle
(50.8323°N, 108.0393°W)
Time: 04:27:17
(UTC+00:00)

X-37B - Pass Details

Date: 05 February 2022
Orbit: 328 x 343 km, 45.0° (Epoch: 12 May)

Event Time Altitude Azimuth Distance (km) Brightness Sun altitude
Rises 02:17:39 0° 262° (W) 2,119 5.9 -20.4°
Reaches altitude 10° 02:20:16 10° 236° (WSW) 1,275 4.0 -20.8°
Maximum altitude 02:21:54 14° 201° (SSW) 1,057 3.0 -21.1°
Enters shadow 02:22:00 14° 199° (SSW) 1,057 3.0 -21.1°
